Inquirer Daily News

Weather

Get conditions and forecasts for any City, State, ZIP code or Country:  
Trenton, NJ
on Friday, January 4, 2013

Friday
Previous Day Next Day
Daily Summary
 ActualAverageRecord
Temperature
Mean Temperature °F 31°F  
Max Temperature 37°F 39°F 68°F (2000)
Min Temperature 27°F 23°F -1°F (1918)
Degree Days
Heating Degree Days 33 34  
Month to date heating degree days 137 135  
Since 1 July heating degree days 1895 2030  
Cooling Degree Days 0 0  
Month to date cooling degree days 0 0  
Year to date cooling degree days 0 0  
Moisture
Dew Point 20°F   
Average Humidity 59    
Maximum Humidity 69    
Minimum Humidity 48    
Precipitation
Precipitation 0.00 in 0.11 in 2.60 in (1982)
Month to date precipitation 0.00 0.44  
Year to date precipitation 0.00 0.44  
Wind
Wind Speed 9 mph   
Max Wind Speed 20 mph   
Max Gust Speed 28 mph   
Visibility 10 miles   
Events     

Key: T is trace of precipitation, MM is missing value
Source: NWS Daily Summary
Time(EST)TemperatureDew PointHumidity Pressure Visibility Wind DirectionWind SpeedGust SpeedPrecipitationEvents Conditions
12:53 AM 28.0°F 18.0°F 66% 30.07 in 9.0 miles West 3.5 mph - N/A   Clear
1:53 AM 27.0°F 18.0°F 69% 30.08 in 10.0 miles WSW 4.6 mph - N/A   Clear
2:53 AM 28.0°F 18.0°F 66% 30.09 in 10.0 miles West 3.5 mph - N/A   Mostly Cloudy
3:53 AM 28.0°F 19.9°F 72% 30.09 in 10.0 miles WSW 3.5 mph - N/A   Overcast
4:53 AM 30.9°F 19.9°F 64% 30.09 in 10.0 miles West 4.6 mph - N/A   Overcast
5:53 AM 32.0°F 19.9°F 61% 30.09 in 10.0 miles West 4.6 mph - N/A   Overcast
6:53 AM 32.0°F 19.9°F 61% 30.10 in 10.0 miles West 5.8 mph - N/A   Partly Cloudy
8:53 AM 34.0°F 19.9°F 56% 30.10 in 10.0 miles West 11.5 mph - N/A   Overcast
9:53 AM 34.0°F 21.0°F 59% 30.11 in 10.0 miles Variable 6.9 mph - N/A   Overcast
10:53 AM 34.0°F 19.0°F 54% 30.09 in 10.0 miles WNW 17.3 mph 21.9 mph N/A   Overcast
11:53 AM 35.1°F 19.0°F 52% 30.06 in 10.0 miles WNW 16.1 mph 23.0 mph N/A   Overcast
12:53 PM 35.1°F 19.9°F 54% 30.04 in 10.0 miles WNW 15.0 mph 24.2 mph N/A   Overcast
1:53 PM 36.0°F 19.9°F 52% 30.01 in 10.0 miles WNW 12.7 mph 26.5 mph N/A   Mostly Cloudy
2:53 PM 37.0°F 19.9°F 50% 29.99 in 10.0 miles NW 13.8 mph 19.6 mph N/A   Clear
3:53 PM 37.0°F 19.9°F 50% 29.99 in 10.0 miles WNW 10.4 mph 19.6 mph N/A   Clear
4:53 PM 36.0°F 21.0°F 55% 29.99 in 10.0 miles West 11.5 mph 18.4 mph N/A   Clear
5:53 PM 36.0°F 19.9°F 52% 30.00 in 10.0 miles West 11.5 mph - N/A   Clear
6:53 PM 35.1°F 21.0°F 57% 30.01 in 10.0 miles West 5.8 mph - N/A   Clear
7:53 PM 34.0°F 21.0°F 59% 30.01 in 10.0 miles West 5.8 mph - N/A   Clear
8:53 PM 34.0°F 19.9°F 56% 30.01 in 10.0 miles West 9.2 mph - N/A   Clear
9:53 PM 34.0°F 19.0°F 54% 30.02 in 10.0 miles WNW 5.8 mph - N/A   Clear
10:53 PM 34.0°F 19.0°F 54% 30.04 in 10.0 miles West 6.9 mph - N/A   Clear
11:53 PM 33.1°F 19.0°F 56% 30.04 in 10.0 miles West 6.9 mph - N/A   Clear
Astronomy
Sunrise:07:22 AM (EST) Moon Rise:No Moon Rise/
Sunset:04:46 PM (EST) Moon Set:11:02 AM (EST)1/4
Moon Phase
Jan. 04 Jan. 04 Jan. 11 Jan. 18 Jan. 26

Copyright © 2014 The Weather Underground, Inc.